Simultaneous Nadir Overpasses (SNOs) Predictions

Prediction of SNOs between GOES-16 and NOAA-20 Satellite Orbit:

Table of predicted SNOs for the next 14.0 days since TLE Epoch: 4/17/2020
Index Date Time (GOES-16) GOES-16 Lat,Lon NOAA-20 Lat,Lon Distance(km) Time Diff (sec)
1 04/18/2020 06:23:58 -0.01, -75.17 -0.05, -75.01 17.88 80
2 04/20/2020 18:27:10 0.01, -75.18 -0.11, -75.79 68.49 80
3 04/21/2020 18:11:04 0.01, -75.19 0.86, -71.25 448.39 80
4 04/23/2020 06:32:53 -0.01, -75.18 0.26, -76.53 152.81 80
5 04/24/2020 06:11:27 -0.01, -75.19 -0.71, -71.99 364.10 80
6 04/25/2020 18:33:23 0.01, -75.21 -0.47, -77.30 238.18 80
7 04/26/2020 18:17:19 0.01, -75.22 0.56, -72.77 279.03 80
8 04/28/2020 06:39:06 -0.01, -75.22 0.63, -78.04 321.42 80
9 04/29/2020 06:17:42 -0.00, -75.23 -0.40, -73.52 195.75 80
10 04/30/2020 18:39:38 0.00, -75.25 -0.78, -78.82 406.33 80




NCC Satellite Simultaneous Nadir Overpasses (SNOs) Prediction Service
